KQ4OSL Weather Reports


time (UTC)temp
C
wind
direction
speed
KPH
gust
KPH
rain 1hr
cm
rain 24hr
cm
rain mn
cm
humidity
%
barometer
mb
20260504180651 23 252 1.6 1.6 0.00 0.00 0.00 43 1018.0
20260504180149 22 185 4.8 4.8 0.00 0.00 0.00 45 1017.9
20260504175646 23 276 0.0 0.0 0.00 0.00 0.00 41 1018.4
20260504175143 22 215 1.6 3.2 0.00 0.00 0.00 45 1018.3
20260504174641 23 240 1.6 3.2 0.00 0.00 0.00 45 1018.4
20260504174137 23 207 4.8 8.0 0.00 0.00 0.00 44 1018.5
20260504173635 23 297 1.6 3.2 0.00 0.00 0.00 43 1018.3
20260504173132 22 23 0.0 0.0 0.00 0.00 0.00 46 1018.6
20260504172628 23 275 3.2 4.8 0.00 0.00 0.00 44 1018.4
20260504172125 23 260 0.0 0.0 0.00 0.00 0.00 51 1018.5
20260504171621 23 274 0.0 0.0 0.00 0.00 0.00 49 1018.5
20260504171119 23 268 1.6 3.2 0.00 0.00 0.00 48 1018.6
20260504170615 22 270 1.6 3.2 0.00 0.00 0.00 50 1018.7
20260504170113 22 243 1.6 1.6 0.00 0.00 0.00 48 1018.6
20260504150958 19 182 4.8 4.8 0.00 0.00 0.00 59 1019.6
20260504150455 18 247 11.3 12.9 0.00 0.00 0.00 55 1019.6
20260504140921 16 261 11.3 12.9 0.00 0.00 0.00 62 1020.2
20260504140418 16 252 6.4 8.0 0.00 0.00 0.00 62 1020.1
20260504130343 13 250 0.0 0.0 0.00 0.00 0.00 77 1019.9
20260504120306 5 268 0.0 0.0 0.00 0.00 0.00 99 1019.7
20260504110230 4 271 0.0 0.0 0.00 0.00 0.00 99 1019.2
20260504100154 3 273 0.0 0.0 0.00 0.00 0.00 99 1019.0
20260504090116 5 273 0.0 0.0 0.00 0.00 0.00 99 1019.1
20260504081546 5 273 0.0 0.0 0.00 0.00 0.00 99 1019.2
20260504081042 5 273 0.0 0.0 0.00 0.00 0.00 99 1018.9
20260504080539 5 273 0.0 0.0 0.00 0.00 0.00 99 1019.0
20260504050352 7 276 0.0 0.0 0.00 0.00 0.00 95 1020.1
20260504045850 7 276 0.0 0.0 0.00 0.00 0.00 95 1020.1
20260504045350 7 276 0.0 0.0 0.00 0.00 0.00 94 1020.2
20260504044847 7 278 0.0 0.0 0.00 0.00 0.00 94 1020.0
20260504044344 7 271 0.0 0.0 0.00 0.00 0.00 94 1020.3
20260504043841 7 270 0.0 0.0 0.00 0.00 0.00 94 1020.3
20260504043338 7 270 0.0 0.0 0.00 0.00 0.00 95 1020.3
20260504042835 7 271 0.0 0.0 0.00 0.00 0.00 95 1020.4
20260504042332 6 266 0.0 0.0 0.00 0.00 0.00 95 1020.4
20260504041828 6 269 0.0 0.0 0.00 0.00 0.00 95 1020.5
20260504041324 7 268 0.0 0.0 0.00 0.00 0.00 94 1020.8
20260504040821 7 274 0.0 0.0 0.00 0.00 0.00 94 1020.5
20260504040319 7 274 0.0 0.0 0.00 0.00 0.00 94 1020.5
20260504035814 7 274 0.0 0.0 0.00 0.00 0.00 93 1020.5
20260504035312 8 280 0.0 0.0 0.00 0.00 0.00 93 1020.7
20260504034809 7 283 0.0 0.0 0.00 0.00 0.00 92 1020.6
20260504034306 7 271 0.0 0.0 0.00 0.00 0.00 91 1020.5
20260504033803 8 271 0.0 0.0 0.00 0.00 0.00 91 1020.5
20260504033301 7 271 0.0 0.0 0.00 0.00 0.00 91 1020.5
20260504032757 8 271 0.0 0.0 0.00 0.00 0.00 90 1020.5
20260504032254 8 271 0.0 0.0 0.00 0.00 0.00 90 1020.3
20260504031751 8 271 0.0 0.0 0.00 0.00 0.00 90 1020.7
20260504031249 8 270 0.0 0.0 0.00 0.00 0.00 89 1020.5
20260504030744 8 271 0.0 0.0 0.00 0.00 0.00 88 1020.5
20260504030242 8 270 0.0 0.0 0.00 0.00 0.00 87 1020.6
20260504025738 8 270 0.0 0.0 0.00 0.00 0.00 86 1020.5
20260504025235 9 271 0.0 0.0 0.00 0.00 0.00 85 1020.5
20260504024732 10 271 0.0 0.0 0.00 0.00 0.00 84 1020.3
20260504024229 9 271 0.0 0.0 0.00 0.00 0.00 83 1020.4
20260504023726 9 271 0.0 0.0 0.00 0.00 0.00 84 1020.5
20260504023221 9 270 0.0 0.0 0.00 0.00 0.00 85 1020.4
20260504022718 9 270 0.0 0.0 0.00 0.00 0.00 86 1020.2
20260504022214 9 270 0.0 0.0 0.00 0.00 0.00 86 1020.2
20260504021712 10 270 0.0 0.0 0.00 0.00 0.00 85 1020.2
20260504021209 10 270 0.0 0.0 0.00 0.00 0.00 81 1020.0
20260504020706 10 271 0.0 0.0 0.00 0.00 0.00 80 1020.1
20260504020201 10 271 0.0 0.0 0.00 0.00 0.00 79 1020.0
20260504015658 11 271 0.0 0.0 0.00 0.00 0.00 78 1019.7
20260504015154 11 271 0.0 0.0 0.00 0.00 0.00 77 1019.7
20260504014650 11 271 0.0 0.0 0.00 0.00 0.00 76 1019.7
20260504014148 12 276 0.0 0.0 0.00 0.00 0.00 73 1019.9
20260504013645 12 291 0.0 1.6 0.00 0.00 0.00 75 1019.7
20260504013142 11 272 0.0 0.0 0.00 0.00 0.00 74 1019.6
20260504012639 12 272 0.0 0.0 0.00 0.00 0.00 73 1019.5
20260504012137 11 272 0.0 0.0 0.00 0.00 0.00 74 1019.4
20260504011633 11 272 0.0 0.0 0.00 0.00 0.00 72 1019.6
20260504011130 12 265 0.0 0.0 0.00 0.00 0.00 73 1019.3
20260504010626 12 265 0.0 0.0 0.00 0.00 0.00 68 1019.1
20260504010122 12 264 0.0 0.0 0.00 0.00 0.00 71 1019.2
20260504005619 13 263 0.0 0.0 0.00 0.00 0.00 67 1019.3
20260504005116 13 265 0.0 0.0 0.00 0.00 0.00 63 1019.1
20260504004614 14 266 0.0 0.0 0.00 0.00 0.00 62 1019.3
20260504004111 14 266 0.0 0.0 0.00 0.00 0.00 59 1019.0
20260504003607 15 267 0.0 0.0 0.00 0.00 0.00 57 1018.9
20260504003103 15 267 0.0 0.0 0.00 0.00 0.00 55 1019.1
20260504002600 15 272 0.0 0.0 0.00 0.00 0.00 55 1019.1
20260504002058 15 202 0.0 0.0 0.00 0.00 0.00 54 1019.0
20260504001555 16 271 0.0 0.0 0.00 0.00 0.00 52 1019.1
20260504001051 16 267 0.0 0.0 0.00 0.00 0.00 51 1019.0
20260504000549 16 271 0.0 0.0 0.00 0.00 0.00 51 1019.0
20260504000046 16 271 1.6 1.6 0.00 0.00 0.00 50 1019.0
20260503235544 16 266 1.6 1.6 0.00 0.00 0.00 49 1019.0
20260503235041 17 266 3.2 3.2 0.00 0.00 0.00 48 1018.9
20260503234538 17 264 1.6 3.2 0.00 0.00 0.00 47 1019.1
20260503234037 17 263 3.2 3.2 0.00 0.00 0.00 46 1019.1
20260503233533 17 269 1.6 1.6 0.00 0.00 0.00 46 1019.0
20260503233029 17 269 1.6 3.2 0.00 0.00 0.00 46 1019.1
20260503232526 18 260 3.2 4.8 0.00 0.00 0.00 47 1019.0
20260503232023 18 261 0.0 0.0 0.00 0.00 0.00 46 1019.0
20260503231521 18 273 3.2 3.2 0.00 0.00 0.00 46 1019.0
20260503231018 18 242 6.4 9.7 0.00 0.00 0.00 44 1019.1
20260503230514 18 275 1.6 1.6 0.00 0.00 0.00 44 1019.0
20260503230012 18 261 4.8 4.8 0.00 0.00 0.00 44 1019.2
20260503225509 18 262 4.8 4.8 0.00 0.00 0.00 44 1019.1
20260503225004 18 252 6.4 9.7 0.00 0.00 0.00 44 1019.0
20260503224501 18 254 3.2 3.2 0.00 0.00 0.00 44 1018.9
20260503223959 19 255 6.4 8.0 0.00 0.00 0.00 41 1019.0
20260503223457 19 245 8.0 11.3 0.00 0.00 0.00 40 1018.9
20260503222952 19 258 4.8 4.8 0.00 0.00 0.00 41 1019.1
20260503222451 19 249 4.8 8.0 0.00 0.00 0.00 41 1019.1
20260503221948 19 302 1.6 3.2 0.00 0.00 0.00 41 1019.1
20260503221446 19 358 3.2 3.2 0.00 0.00 0.00 42 1019.0
20260503220943 20 19 3.2 3.2 0.00 0.00 0.00 41 1019.0
20260503220439 20 322 3.2 3.2 0.00 0.00 0.00 41 1019.1
20260503215936 20 258 4.8 8.0 0.00 0.00 0.00 40 1019.1
20260503215433 20 284 1.6 1.6 0.00 0.00 0.00 41 1019.1
20260503214931 20 288 0.0 0.0 0.00 0.00 0.00 41 1019.1
20260503214429 20 279 0.0 0.0 0.00 0.00 0.00 40 1019.1
20260503213926 20 295 0.0 0.0 0.00 0.00 0.00 38 1019.3
20260503213424 20 295 1.6 1.6 0.00 0.00 0.00 39 1019.3
20260503212920 20 246 4.8 4.8 0.00 0.00 0.00 38 1019.3
20260503212417 20 293 4.8 8.0 0.00 0.00 0.00 38 1019.2
20260503211915 21 285 0.0 0.0 0.00 0.00 0.00 39 1019.2
20260503211412 20 282 1.6 3.2 0.00 0.00 0.00 43 1019.3
20260503210907 21 268 4.8 4.8 0.00 0.00 0.00 39 1019.2
20260503210405 20 262 1.6 3.2 0.00 0.00 0.00 42 1019.3
20260503205904 20 280 3.2 3.2 0.00 0.00 0.00 42 1019.5
20260503205402 20 274 3.2 3.2 0.00 0.00 0.00 41 1019.4
20260503204858 20 258 8.0 9.7 0.00 0.00 0.00 41 1019.3
20260503204356 20 234 8.0 12.9 0.00 0.00 0.00 39 1019.4
20260503203853 21 297 8.0 11.3 0.00 0.00 0.00 40 1019.3
20260503203350 21 306 0.0 0.0 0.00 0.00 0.00 38 1019.5
20260503202847 21 280 0.0 0.0 0.00 0.00 0.00 38 1019.6
20260503202345 20 320 3.2 4.8 0.00 0.00 0.00 38 1019.7
20260503201843 21 290 1.6 3.2 0.00 0.00 0.00 39 1020.0
20260503201340 20 314 3.2 3.2 0.00 0.00 0.00 43 1019.7
20260503200837 20 265 6.4 8.0 0.00 0.00 0.00 43 1019.9
20260503200332 20 262 4.8 4.8 0.00 0.00 0.00 41 1020.0
20260503195830 20 267 0.0 0.0 0.00 0.00 0.00 48 1020.0
20260503195327 20 272 1.6 3.2 0.00 0.00 0.00 43 1020.2
20260503194824 20 352 9.7 11.3 0.00 0.00 0.00 42 1020.2
20260503194320 20 298 0.0 0.0 0.00 0.00 0.00 49 1020.4
20260503193816 20 296 4.8 4.8 0.00 0.00 0.00 47 1020.3
20260503193312 20 262 3.2 3.2 0.00 0.00 0.00 45 1020.6
20260503192808 20 262 8.0 8.0 0.00 0.00 0.00 43 1020.8
20260503192305 20 276 1.6 3.2 0.00 0.00 0.00 44 1020.6
20260503191800 20 287 0.0 0.0 0.00 0.00 0.00 47 1020.7
20260503191257 20 285 3.2 3.2 0.00 0.00 0.00 43 1020.8
20260503190754 20 321 4.8 4.8 0.00 0.00 0.00 43 1021.0
20260503190251 20 302 3.2 3.2 0.00 0.00 0.00 43 1021.0
20260503185748 20 277 1.6 1.6 0.00 0.00 0.00 45 1021.2
20260503185244 19 243 8.0 9.7 0.00 0.00 0.00 45 1021.0
20260503184738 18 252 0.0 1.6 0.00 0.00 0.00 46 1021.0
20260503184235 18 265 6.4 8.0 0.00 0.00 0.00 45 1021.2
20260503183731 19 246 8.0 11.3 0.00 0.00 0.00 47 1021.1
20260503183229 19 276 0.0 0.0 0.00 0.00 0.00 47 1021.3
20260503182727 18 273 0.0 0.0 0.00 0.00 0.00 51 1021.3
20260503182225 19 328 3.2 4.8 0.00 0.00 0.00 44 1021.3
20260503181722 20 328 3.2 3.2 0.00 0.00 0.00 46 1021.4
20260503181219 19 278 3.2 3.2 0.00 0.00 0.00 45 1021.7
20260503180715 18 267 0.0 0.0 0.00 0.00 0.00 51 1021.7